Year,Month,Day,Hour,Minute,Value (Times are PST for temperature in C)
2017,07,19,00,00,21.40
2017,07,19,00,01,21.40
2017,07,19,00,02,21.30
2017,07,19,00,03,21.30
2017,07,19,00,04,21.30
2017,07,19,00,05,21.20
2017,07,19,00,06,21.20
2017,07,19,00,07,21.10
2017,07,19,00,08,21.00
2017,07,19,00,09,21.00
2017,07,19,00,10,20.90
2017,07,19,00,11,20.90
2017,07,19,00,12,21.00
2017,07,19,00,13,21.00
2017,07,19,00,14,20.90
2017,07,19,00,15,20.90
2017,07,19,00,16,20.90
2017,07,19,00,17,20.90
2017,07,19,00,18,20.80
2017,07,19,00,19,20.80
2017,07,19,00,20,20.80
2017,07,19,00,21,20.80
2017,07,19,00,22,20.70
2017,07,19,00,23,20.70
2017,07,19,00,24,20.70
2017,07,19,00,25,20.70
2017,07,19,00,26,20.70
2017,07,19,00,27,20.80
2017,07,19,00,28,20.80
2017,07,19,00,29,20.90
2017,07,19,00,30,20.90
2017,07,19,00,31,21.00
2017,07,19,00,32,21.10
2017,07,19,00,33,21.30
2017,07,19,00,34,21.30
2017,07,19,00,35,21.40
2017,07,19,00,36,21.40
2017,07,19,00,37,21.30
2017,07,19,00,38,21.30
2017,07,19,00,39,21.30
2017,07,19,00,40,21.30
2017,07,19,00,41,21.20
2017,07,19,00,42,21.20
2017,07,19,00,43,21.20
2017,07,19,00,44,21.10
2017,07,19,00,45,20.90
2017,07,19,00,46,20.70
2017,07,19,00,47,20.40
2017,07,19,00,48,20.20
2017,07,19,00,49,20.00
2017,07,19,00,50,19.80
2017,07,19,00,51,19.70
2017,07,19,00,52,19.50
2017,07,19,00,53,19.40
2017,07,19,00,54,19.20
2017,07,19,00,55,19.10
2017,07,19,00,56,18.90
2017,07,19,00,57,18.80
2017,07,19,00,58,18.70
2017,07,19,00,59,18.60
2017,07,19,01,00,18.60
2017,07,19,01,01,18.50
2017,07,19,01,02,18.40
2017,07,19,01,03,18.30
2017,07,19,01,04,18.20
2017,07,19,01,05,18.20
2017,07,19,01,06,18.20
2017,07,19,01,07,18.10
2017,07,19,01,08,18.10
2017,07,19,01,09,18.10
2017,07,19,01,10,18.10
2017,07,19,01,11,18.10
2017,07,19,01,12,18.10
2017,07,19,01,13,18.00
2017,07,19,01,14,18.00
2017,07,19,01,15,17.90
2017,07,19,01,16,17.90
2017,07,19,01,17,17.90
2017,07,19,01,18,17.90
2017,07,19,01,19,17.80
2017,07,19,01,20,17.80
2017,07,19,01,21,17.80
2017,07,19,01,22,17.70
2017,07,19,01,23,17.70
2017,07,19,01,24,17.70
2017,07,19,01,25,17.70
2017,07,19,01,26,17.70
2017,07,19,01,27,17.70
2017,07,19,01,28,17.70
2017,07,19,01,29,17.70
2017,07,19,01,30,17.70
2017,07,19,01,31,17.70
2017,07,19,01,32,17.60
2017,07,19,01,33,17.60
2017,07,19,01,34,17.60
2017,07,19,01,35,17.60
2017,07,19,01,36,17.60
2017,07,19,01,37,17.60
2017,07,19,01,38,17.60
2017,07,19,01,39,17.50
2017,07,19,01,40,17.50
2017,07,19,01,41,17.50
2017,07,19,01,42,17.40
2017,07,19,01,43,17.40
2017,07,19,01,44,17.40
2017,07,19,01,45,17.40
2017,07,19,01,46,17.30
2017,07,19,01,47,17.30
2017,07,19,01,48,17.30
2017,07,19,01,49,17.30
2017,07,19,01,50,17.30
2017,07,19,01,51,17.30
2017,07,19,01,52,17.30
2017,07,19,01,53,17.20
2017,07,19,01,54,17.20
2017,07,19,01,55,17.20
2017,07,19,01,56,17.10
2017,07,19,01,57,17.10
2017,07,19,01,58,17.10
2017,07,19,01,59,17.10
2017,07,19,02,00,17.00
2017,07,19,02,01,16.90
2017,07,19,02,02,16.90
2017,07,19,02,03,16.80
2017,07,19,02,04,16.80
2017,07,19,02,05,16.80
2017,07,19,02,06,16.80
2017,07,19,02,07,16.70
2017,07,19,02,08,16.70
2017,07,19,02,09,16.70
2017,07,19,02,10,16.60
2017,07,19,02,11,16.60
2017,07,19,02,12,16.50
2017,07,19,02,13,16.50
2017,07,19,02,14,16.40
2017,07,19,02,15,16.40
2017,07,19,02,16,16.40
2017,07,19,02,17,16.30
2017,07,19,02,18,16.30
2017,07,19,02,19,16.30
2017,07,19,02,20,16.30
2017,07,19,02,21,16.20
2017,07,19,02,22,16.20
2017,07,19,02,23,16.20
2017,07,19,02,24,16.20
2017,07,19,02,25,16.10
2017,07,19,02,26,16.10
2017,07,19,02,27,16.10
2017,07,19,02,28,16.10
2017,07,19,02,29,16.00
2017,07,19,02,30,16.00
2017,07,19,02,31,15.90
2017,07,19,02,32,15.90
2017,07,19,02,33,15.90
2017,07,19,02,34,15.90
2017,07,19,02,35,15.90
2017,07,19,02,36,15.90
2017,07,19,02,37,15.80
2017,07,19,02,38,15.80
2017,07,19,02,39,15.80
2017,07,19,02,40,15.80
2017,07,19,02,41,15.80
2017,07,19,02,42,15.70
2017,07,19,02,43,15.70
2017,07,19,02,44,15.70
2017,07,19,02,45,15.60
2017,07,19,02,46,15.60
2017,07,19,02,47,15.50
2017,07,19,02,48,15.50
2017,07,19,02,49,15.40
2017,07,19,02,50,15.40
2017,07,19,02,51,15.40
2017,07,19,02,52,15.40
2017,07,19,02,53,15.40
2017,07,19,02,54,15.40
2017,07,19,02,55,15.40
2017,07,19,02,56,15.40
2017,07,19,02,57,15.50
2017,07,19,02,58,15.50
2017,07,19,02,59,15.50
2017,07,19,03,00,15.50
2017,07,19,03,01,15.50
2017,07,19,03,02,15.50
2017,07,19,03,03,15.50
2017,07,19,03,04,15.50
2017,07,19,03,05,15.50
2017,07,19,03,06,15.50
2017,07,19,03,07,15.50
2017,07,19,03,08,15.60
2017,07,19,03,09,15.60
2017,07,19,03,10,15.70
2017,07,19,03,11,15.70
2017,07,19,03,12,15.80
2017,07,19,03,13,15.80
2017,07,19,03,14,15.90
2017,07,19,03,15,16.00
2017,07,19,03,16,16.10
2017,07,19,03,17,16.20
2017,07,19,03,18,16.30
2017,07,19,03,19,16.40
2017,07,19,03,20,16.50
2017,07,19,03,21,16.60
2017,07,19,03,22,16.70
2017,07,19,03,23,16.70
2017,07,19,03,24,16.80
2017,07,19,03,25,16.80
2017,07,19,03,26,16.80
2017,07,19,03,27,16.90
2017,07,19,03,28,16.90
2017,07,19,03,29,17.00
2017,07,19,03,30,17.10
2017,07,19,03,31,17.10
2017,07,19,03,32,17.20
2017,07,19,03,33,17.30
2017,07,19,03,34,17.30
2017,07,19,03,35,17.30
2017,07,19,03,36,17.40
2017,07,19,03,37,17.40
2017,07,19,03,38,17.50
2017,07,19,03,39,17.50
2017,07,19,03,40,17.60
2017,07,19,03,41,17.70
2017,07,19,03,42,17.70
2017,07,19,03,43,17.70
2017,07,19,03,44,17.70
2017,07,19,03,45,17.80
2017,07,19,03,46,17.80
2017,07,19,03,47,17.80
2017,07,19,03,48,17.80
2017,07,19,03,49,17.80
2017,07,19,03,50,17.80
2017,07,19,03,51,17.80
2017,07,19,03,52,17.80
2017,07,19,03,53,17.80
2017,07,19,03,54,17.80
2017,07,19,03,55,17.90
2017,07,19,03,56,17.90
2017,07,19,03,57,17.90
2017,07,19,03,58,17.90
2017,07,19,03,59,17.80
2017,07,19,04,00,17.80
2017,07,19,04,01,17.80
2017,07,19,04,02,17.80
2017,07,19,04,03,17.80
2017,07,19,04,04,17.80
2017,07,19,04,05,17.80
2017,07,19,04,06,17.80
2017,07,19,04,07,17.70
2017,07,19,04,08,17.70
2017,07,19,04,09,17.70
2017,07,19,04,10,17.70
2017,07,19,04,11,17.70
2017,07,19,04,12,17.80
2017,07,19,04,13,17.80
2017,07,19,04,14,17.80
2017,07,19,04,15,17.80
2017,07,19,04,16,17.80
2017,07,19,04,17,17.80
2017,07,19,04,18,17.80
2017,07,19,04,19,17.80
2017,07,19,04,20,17.90
2017,07,19,04,21,17.80
2017,07,19,04,22,17.90
2017,07,19,04,23,17.90
2017,07,19,04,24,17.90
2017,07,19,04,25,17.90
2017,07,19,04,26,17.90
2017,07,19,04,27,17.80
2017,07,19,04,28,17.80
2017,07,19,04,29,17.80
2017,07,19,04,30,17.80
2017,07,19,04,31,17.80
2017,07,19,04,32,17.80
2017,07,19,04,33,17.80
2017,07,19,04,34,17.90
2017,07,19,04,35,17.90
2017,07,19,04,36,17.80
2017,07,19,04,37,17.80
2017,07,19,04,38,17.80
2017,07,19,04,39,17.80
2017,07,19,04,40,17.80
2017,07,19,04,41,17.80
2017,07,19,04,42,17.80
2017,07,19,04,43,17.80
2017,07,19,04,44,17.80
2017,07,19,04,45,17.80
2017,07,19,04,46,17.80
2017,07,19,04,47,17.80
2017,07,19,04,48,17.70
2017,07,19,04,49,17.70
2017,07,19,04,50,17.60
2017,07,19,04,51,17.60
2017,07,19,04,52,17.50
2017,07,19,04,53,17.30
2017,07,19,04,54,17.10
2017,07,19,04,55,17.00
2017,07,19,04,56,16.70
2017,07,19,04,57,16.50
2017,07,19,04,58,16.30
2017,07,19,04,59,16.10
2017,07,19,05,00,16.00
2017,07,19,05,01,15.80
2017,07,19,05,02,15.70
2017,07,19,05,03,15.50
2017,07,19,05,04,15.40
2017,07,19,05,05,15.30
2017,07,19,05,06,15.30
2017,07,19,05,07,15.20
2017,07,19,05,08,15.20
2017,07,19,05,09,15.20
2017,07,19,05,10,15.20
2017,07,19,05,11,15.20
2017,07,19,05,12,15.20
2017,07,19,05,13,15.20
2017,07,19,05,14,15.10
2017,07,19,05,15,15.00
2017,07,19,05,16,14.90
2017,07,19,05,17,14.80
2017,07,19,05,18,14.80
2017,07,19,05,19,14.70
2017,07,19,05,20,14.70
2017,07,19,05,21,14.60
2017,07,19,05,22,14.50
2017,07,19,05,23,14.40
2017,07,19,05,24,14.30
2017,07,19,05,25,14.20
2017,07,19,05,26,14.00
2017,07,19,05,27,13.90
2017,07,19,05,28,13.80
2017,07,19,05,29,13.80
2017,07,19,05,30,13.70
2017,07,19,05,31,13.60
2017,07,19,05,32,13.50
2017,07,19,05,33,13.40
2017,07,19,05,34,13.40
2017,07,19,05,35,13.30
2017,07,19,05,36,13.30
2017,07,19,05,37,13.20
2017,07,19,05,38,13.20
2017,07,19,05,39,13.20
2017,07,19,05,40,13.20
2017,07,19,05,41,13.20
2017,07,19,05,42,13.20
2017,07,19,05,43,13.20
2017,07,19,05,44,13.20
2017,07,19,05,45,13.20
2017,07,19,05,46,13.20
2017,07,19,05,47,13.20
2017,07,19,05,48,13.20
2017,07,19,05,49,13.20
2017,07,19,05,50,13.20
2017,07,19,05,51,13.20
2017,07,19,05,52,13.20
2017,07,19,05,53,13.20
2017,07,19,05,54,13.20
2017,07,19,05,55,13.20
2017,07,19,05,56,13.20
2017,07,19,05,57,13.20
2017,07,19,05,58,13.20
2017,07,19,05,59,13.20
2017,07,19,06,00,13.20
2017,07,19,06,01,13.20
2017,07,19,06,02,13.20
2017,07,19,06,03,13.20
2017,07,19,06,04,13.20
2017,07,19,06,05,13.20
2017,07,19,06,06,13.30
2017,07,19,06,07,13.50
2017,07,19,06,08,13.60
2017,07,19,06,09,13.70
2017,07,19,06,10,13.80
2017,07,19,06,11,13.90
2017,07,19,06,12,14.10
2017,07,19,06,13,14.30
2017,07,19,06,14,14.50
2017,07,19,06,15,14.70
2017,07,19,06,16,15.00
2017,07,19,06,17,15.30
2017,07,19,06,18,15.60
2017,07,19,06,19,15.80
2017,07,19,06,20,15.90
2017,07,19,06,21,16.10
2017,07,19,06,22,16.20
2017,07,19,06,23,16.20
2017,07,19,06,24,16.30
2017,07,19,06,25,16.30
2017,07,19,06,26,16.30
2017,07,19,06,27,16.30
2017,07,19,06,28,16.20
2017,07,19,06,29,16.10
2017,07,19,06,30,16.00
2017,07,19,06,31,15.90
2017,07,19,06,32,15.90
2017,07,19,06,33,15.80
2017,07,19,06,34,15.70
2017,07,19,06,35,15.70
2017,07,19,06,36,15.60
2017,07,19,06,37,15.60
2017,07,19,06,38,15.60
2017,07,19,06,39,15.50
2017,07,19,06,40,15.50
2017,07,19,06,41,15.60
2017,07,19,06,42,15.60
2017,07,19,06,43,15.60
2017,07,19,06,44,15.70
2017,07,19,06,45,15.70
2017,07,19,06,46,15.80
2017,07,19,06,47,15.70
2017,07,19,06,48,15.70
2017,07,19,06,49,15.60
2017,07,19,06,50,15.60
2017,07,19,06,51,15.50
2017,07,19,06,52,15.40
2017,07,19,06,53,15.30
2017,07,19,06,54,15.20
2017,07,19,06,55,15.10
2017,07,19,06,56,15.10
2017,07,19,06,57,15.00
2017,07,19,06,58,15.00
2017,07,19,06,59,15.00
2017,07,19,07,00,14.90
2017,07,19,07,01,14.90
2017,07,19,07,02,14.90
2017,07,19,07,03,14.90
2017,07,19,07,04,15.00
2017,07,19,07,05,15.10
2017,07,19,07,06,15.20
2017,07,19,07,07,15.30
2017,07,19,07,08,15.40
2017,07,19,07,09,15.50
2017,07,19,07,10,15.70
2017,07,19,07,11,15.80
2017,07,19,07,12,15.90
2017,07,19,07,13,16.00
2017,07,19,07,14,16.10
2017,07,19,07,15,16.20
2017,07,19,07,16,16.30
2017,07,19,07,17,16.40
2017,07,19,07,18,16.50
2017,07,19,07,19,16.60
2017,07,19,07,20,16.70
2017,07,19,07,21,16.80
2017,07,19,07,22,16.90
2017,07,19,07,23,16.90
2017,07,19,07,24,17.00
2017,07,19,07,25,17.00
2017,07,19,07,26,17.10
2017,07,19,07,27,17.10
2017,07,19,07,28,17.20
2017,07,19,07,29,17.20
2017,07,19,07,30,17.30
2017,07,19,07,31,17.30
2017,07,19,07,32,17.30
2017,07,19,07,33,17.30
2017,07,19,07,34,17.40
2017,07,19,07,35,17.40
2017,07,19,07,36,17.40
2017,07,19,07,37,17.50
2017,07,19,07,38,17.50
2017,07,19,07,39,17.60
2017,07,19,07,40,17.60
2017,07,19,07,41,17.60
2017,07,19,07,42,17.60
2017,07,19,07,43,17.60
2017,07,19,07,44,17.60
2017,07,19,07,45,17.60
2017,07,19,07,46,17.50
2017,07,19,07,47,17.50
2017,07,19,07,48,17.50
2017,07,19,07,49,17.40
2017,07,19,07,50,17.40
2017,07,19,07,51,17.50
2017,07,19,07,52,17.50
2017,07,19,07,53,17.50
2017,07,19,07,54,17.50
2017,07,19,07,55,17.60
2017,07,19,07,56,17.60
2017,07,19,07,57,17.70
2017,07,19,07,58,17.70
2017,07,19,07,59,17.80
2017,07,19,08,00,17.80
2017,07,19,08,01,17.90
2017,07,19,08,02,17.90
2017,07,19,08,03,18.00
2017,07,19,08,04,18.10
2017,07,19,08,05,18.10
2017,07,19,08,06,18.10
2017,07,19,08,07,18.20
2017,07,19,08,08,18.20
2017,07,19,08,09,18.20
2017,07,19,08,10,18.20
2017,07,19,08,11,18.20
2017,07,19,08,12,18.20
2017,07,19,08,13,18.20
2017,07,19,08,14,18.20
2017,07,19,08,15,18.20
2017,07,19,08,16,18.20
2017,07,19,08,17,18.20
2017,07,19,08,18,18.20
2017,07,19,08,19,18.20
2017,07,19,08,20,18.20
2017,07,19,08,21,18.20
2017,07,19,08,22,18.20
2017,07,19,08,23,18.20
2017,07,19,08,24,18.20
2017,07,19,08,25,18.30
2017,07,19,08,26,18.30
2017,07,19,08,27,18.30
2017,07,19,08,28,18.30
2017,07,19,08,29,18.30
2017,07,19,08,30,18.30
2017,07,19,08,31,18.30
2017,07,19,08,32,18.30
2017,07,19,08,33,18.30
2017,07,19,08,34,18.30
2017,07,19,08,35,18.30
2017,07,19,08,36,18.40
2017,07,19,08,37,18.40
2017,07,19,08,38,18.40
2017,07,19,08,39,18.50
2017,07,19,08,40,18.50
2017,07,19,08,41,18.50
2017,07,19,08,42,18.60
2017,07,19,08,43,18.60
2017,07,19,08,44,18.60
2017,07,19,08,45,18.70
2017,07,19,08,46,18.70
2017,07,19,08,47,18.80
2017,07,19,08,48,18.80
2017,07,19,08,49,18.90
2017,07,19,08,50,19.00
2017,07,19,08,51,19.00
2017,07,19,08,52,19.10
2017,07,19,08,53,19.10
2017,07,19,08,54,19.20
2017,07,19,08,55,19.20
2017,07,19,08,56,19.20
2017,07,19,08,57,19.30
2017,07,19,08,58,19.30
2017,07,19,08,59,19.40
2017,07,19,09,00,19.40
2017,07,19,09,01,19.40
2017,07,19,09,02,19.40
2017,07,19,09,03,19.50
2017,07,19,09,04,19.50
2017,07,19,09,05,19.60
2017,07,19,09,06,19.70
2017,07,19,09,07,19.70
2017,07,19,09,08,19.70
2017,07,19,09,09,19.70
2017,07,19,09,10,19.70
2017,07,19,09,11,19.80
2017,07,19,09,12,19.80
2017,07,19,09,13,19.90
2017,07,19,09,14,20.00
2017,07,19,09,15,20.00
2017,07,19,09,16,20.10
2017,07,19,09,17,20.20
2017,07,19,09,18,20.20
2017,07,19,09,19,20.30
2017,07,19,09,20,20.30
2017,07,19,09,21,20.30
2017,07,19,09,22,20.40
2017,07,19,09,23,20.50
2017,07,19,09,24,20.50
2017,07,19,09,25,20.50
2017,07,19,09,26,20.60
2017,07,19,09,27,20.60
2017,07,19,09,28,20.50
2017,07,19,09,29,20.40
2017,07,19,09,30,20.40
2017,07,19,09,31,20.40
2017,07,19,09,32,20.40
2017,07,19,09,33,20.40
2017,07,19,09,34,20.40
2017,07,19,09,35,20.50
2017,07,19,09,36,20.50
2017,07,19,09,37,20.60
2017,07,19,09,38,20.60
2017,07,19,09,39,20.70
2017,07,19,09,40,20.80
2017,07,19,09,41,20.90
2017,07,19,09,42,21.00
2017,07,19,09,43,21.10
2017,07,19,09,44,21.20
2017,07,19,09,45,21.30
2017,07,19,09,46,21.40
2017,07,19,09,47,21.40
2017,07,19,09,48,21.50
2017,07,19,09,49,21.50
2017,07,19,09,50,21.60
2017,07,19,09,51,21.60
2017,07,19,09,52,21.70
2017,07,19,09,53,21.70
2017,07,19,09,54,21.70
2017,07,19,09,55,21.70
2017,07,19,09,56,21.80
2017,07,19,09,57,21.80
2017,07,19,09,58,21.80
2017,07,19,09,59,21.70
2017,07,19,10,00,21.70
2017,07,19,10,01,21.70
2017,07,19,10,02,21.70
2017,07,19,10,03,21.70
2017,07,19,10,04,21.60
2017,07,19,10,05,21.60
2017,07,19,10,06,21.50
2017,07,19,10,07,21.40
2017,07,19,10,08,21.30
2017,07,19,10,09,21.20
2017,07,19,10,10,21.10
2017,07,19,10,11,21.10
2017,07,19,10,12,21.10
2017,07,19,10,13,21.10
2017,07,19,10,14,21.20
2017,07,19,10,15,21.20
2017,07,19,10,16,21.20
2017,07,19,10,17,21.20
2017,07,19,10,18,21.20
2017,07,19,10,19,21.20
2017,07,19,10,20,21.10
2017,07,19,10,21,21.10
2017,07,19,10,22,21.00
2017,07,19,10,23,21.00
2017,07,19,10,24,21.00
2017,07,19,10,25,21.00
2017,07,19,10,26,21.00
2017,07,19,10,27,21.00
2017,07,19,10,28,21.00
2017,07,19,10,29,21.00
2017,07,19,10,30,21.10
2017,07,19,10,31,21.10
2017,07,19,10,32,21.10
2017,07,19,10,33,21.10
2017,07,19,10,34,21.10
2017,07,19,10,35,21.10
2017,07,19,10,36,21.10
2017,07,19,10,37,21.10
2017,07,19,10,38,21.20
2017,07,19,10,39,21.20
2017,07,19,10,40,21.30
2017,07,19,10,41,21.30
2017,07,19,10,42,21.20
2017,07,19,10,43,21.20
2017,07,19,10,44,21.20
2017,07,19,10,45,21.20
2017,07,19,10,46,21.20
2017,07,19,10,47,21.20
2017,07,19,10,48,21.20
2017,07,19,10,49,21.20
2017,07,19,10,50,21.20
2017,07,19,10,51,21.20
2017,07,19,10,52,21.20
2017,07,19,10,53,21.20
2017,07,19,10,54,21.30
2017,07,19,10,55,21.30
2017,07,19,10,56,21.30
2017,07,19,10,57,21.30
2017,07,19,10,58,21.30
2017,07,19,10,59,21.30
2017,07,19,11,00,21.30
2017,07,19,11,01,21.30
2017,07,19,11,02,21.30
2017,07,19,11,03,21.30
2017,07,19,11,04,21.40
2017,07,19,11,05,21.40
2017,07,19,11,06,21.30
2017,07,19,11,07,21.30
2017,07,19,11,08,21.30
2017,07,19,11,09,21.30
2017,07,19,11,10,21.20
2017,07,19,11,11,21.20
2017,07,19,11,12,21.20
2017,07,19,11,13,21.20
2017,07,19,11,14,21.20
2017,07,19,11,15,21.20
2017,07,19,11,16,21.30
2017,07,19,11,17,21.30
2017,07,19,11,18,21.30
2017,07,19,11,19,21.40
2017,07,19,11,20,21.40
2017,07,19,11,21,21.40
2017,07,19,11,22,21.40
2017,07,19,11,23,21.50
2017,07,19,11,24,21.50
2017,07,19,11,25,21.50
2017,07,19,11,26,21.50
2017,07,19,11,27,21.50
2017,07,19,11,28,21.50
2017,07,19,11,29,21.60
2017,07,19,11,30,21.60
2017,07,19,11,31,21.70
2017,07,19,11,32,21.70
2017,07,19,11,33,21.80
2017,07,19,11,34,21.80
2017,07,19,11,35,21.80
2017,07,19,11,36,21.80
2017,07,19,11,37,21.90
2017,07,19,11,38,22.00
2017,07,19,11,39,22.10
2017,07,19,11,40,22.10
2017,07,19,11,41,22.20
2017,07,19,11,42,22.20
2017,07,19,11,43,22.10
2017,07,19,11,44,22.10
2017,07,19,11,45,22.00
2017,07,19,11,46,22.00
2017,07,19,11,47,22.00
2017,07,19,11,48,22.10
2017,07,19,11,49,22.10
2017,07,19,11,50,22.20
2017,07,19,11,51,22.20
2017,07,19,11,52,22.20
2017,07,19,11,53,22.20
2017,07,19,11,54,22.10
2017,07,19,11,55,22.10
2017,07,19,11,56,22.00
2017,07,19,11,57,22.00
2017,07,19,11,58,22.00
2017,07,19,11,59,22.10
2017,07,19,12,00,22.10
2017,07,19,12,01,22.20
2017,07,19,12,02,22.30
2017,07,19,12,03,22.40
2017,07,19,12,04,22.40
2017,07,19,12,05,22.40
2017,07,19,12,06,22.40
2017,07,19,12,07,22.30
2017,07,19,12,08,22.20
2017,07,19,12,09,22.20
2017,07,19,12,10,22.10
2017,07,19,12,11,22.10
2017,07,19,12,12,22.10
2017,07,19,12,13,22.20
2017,07,19,12,14,22.20
2017,07,19,12,15,22.20
2017,07,19,12,16,22.20
2017,07,19,12,17,22.20
2017,07,19,12,18,22.20
2017,07,19,12,19,22.20
2017,07,19,12,20,22.30
2017,07,19,12,21,22.30
2017,07,19,12,22,22.20
2017,07,19,12,23,22.10
2017,07,19,12,24,22.10
2017,07,19,12,25,22.00
2017,07,19,12,26,22.00
2017,07,19,12,27,21.90
2017,07,19,12,28,21.90
2017,07,19,12,29,21.80
2017,07,19,12,30,21.80
2017,07,19,12,31,21.70
2017,07,19,12,32,21.70
2017,07,19,12,33,21.70
2017,07,19,12,34,21.60
2017,07,19,12,35,21.60
2017,07,19,12,36,21.60
2017,07,19,12,37,21.70
2017,07,19,12,38,21.80
2017,07,19,12,39,21.90
2017,07,19,12,40,21.90
2017,07,19,12,41,22.00
2017,07,19,12,42,22.10
2017,07,19,12,43,22.10
2017,07,19,12,44,22.10
2017,07,19,12,45,22.10
2017,07,19,12,46,22.10
2017,07,19,12,47,22.10
2017,07,19,12,48,22.20
2017,07,19,12,49,22.20
2017,07,19,12,50,22.20
2017,07,19,12,51,22.20
2017,07,19,12,52,22.20
2017,07,19,12,53,22.20
2017,07,19,12,54,22.10
2017,07,19,12,55,22.10
2017,07,19,12,56,22.00
2017,07,19,12,57,21.90
2017,07,19,12,58,21.80
2017,07,19,12,59,21.80
2017,07,19,13,00,21.70
2017,07,19,13,01,21.60
2017,07,19,13,02,21.60
2017,07,19,13,03,21.60
2017,07,19,13,04,21.60
2017,07,19,13,05,21.70
2017,07,19,13,06,21.70
2017,07,19,13,07,21.70
2017,07,19,13,08,21.70
2017,07,19,13,09,21.70
2017,07,19,13,10,21.80
2017,07,19,13,11,21.90
2017,07,19,13,12,21.90
2017,07,19,13,13,21.90
2017,07,19,13,14,22.00
2017,07,19,13,15,22.00
2017,07,19,13,16,22.10
2017,07,19,13,17,22.00
2017,07,19,13,18,22.00
2017,07,19,13,19,22.10
2017,07,19,13,20,22.10
2017,07,19,13,21,22.10
2017,07,19,13,22,22.20
2017,07,19,13,23,22.30
2017,07,19,13,24,22.30
2017,07,19,13,25,22.40
2017,07,19,13,26,22.30
2017,07,19,13,27,22.30
2017,07,19,13,28,22.30
2017,07,19,13,29,22.40
2017,07,19,13,30,22.40
2017,07,19,13,31,22.40
2017,07,19,13,32,22.50
2017,07,19,13,33,22.50
2017,07,19,13,34,22.50
2017,07,19,13,35,22.50
2017,07,19,13,36,22.60
2017,07,19,13,37,22.60
2017,07,19,13,38,22.60
2017,07,19,13,39,22.60
2017,07,19,13,40,22.60
2017,07,19,13,41,22.70
2017,07,19,13,42,22.80
2017,07,19,13,43,22.80
2017,07,19,13,44,22.90
2017,07,19,13,45,23.00
2017,07,19,13,46,23.10
2017,07,19,13,47,23.20
2017,07,19,13,48,23.30
2017,07,19,13,49,23.30
2017,07,19,13,50,23.30
2017,07,19,13,51,23.20
2017,07,19,13,52,23.20
2017,07,19,13,53,23.20
2017,07,19,13,54,23.20
2017,07,19,13,55,23.20
2017,07,19,13,56,23.20
2017,07,19,13,57,23.20
2017,07,19,13,58,23.20
2017,07,19,13,59,23.30
2017,07,19,14,00,23.30
2017,07,19,14,01,23.30
2017,07,19,14,02,23.30
2017,07,19,14,03,23.30
2017,07,19,14,04,23.30
2017,07,19,14,05,23.30
2017,07,19,14,06,23.30
2017,07,19,14,07,23.20
2017,07,19,14,08,23.20
2017,07,19,14,09,23.20
2017,07,19,14,10,23.10
2017,07,19,14,11,23.00
2017,07,19,14,12,22.90
2017,07,19,14,13,22.80
2017,07,19,14,14,22.80
2017,07,19,14,15,22.70
2017,07,19,14,16,22.70
2017,07,19,14,17,22.80
2017,07,19,14,18,22.80
2017,07,19,14,19,22.80
2017,07,19,14,20,22.80
2017,07,19,14,21,22.70
2017,07,19,14,22,22.70
2017,07,19,14,23,22.70
2017,07,19,14,24,22.60
2017,07,19,14,25,22.50
2017,07,19,14,26,22.40
2017,07,19,14,27,22.40
2017,07,19,14,28,22.30
2017,07,19,14,29,22.40
2017,07,19,14,30,22.40
2017,07,19,14,31,22.50
2017,07,19,14,32,22.60
2017,07,19,14,33,22.70
2017,07,19,14,34,22.70
2017,07,19,14,35,22.70
2017,07,19,14,36,22.60
2017,07,19,14,37,22.60
2017,07,19,14,38,22.70
2017,07,19,14,39,22.70
2017,07,19,14,40,22.80
2017,07,19,14,41,22.80
2017,07,19,14,42,22.80
2017,07,19,14,43,22.80
2017,07,19,14,44,22.70
2017,07,19,14,45,22.70
2017,07,19,14,46,22.70
2017,07,19,14,47,22.60
2017,07,19,14,48,22.60
2017,07,19,14,49,22.70
2017,07,19,14,50,22.80
2017,07,19,14,51,22.80
2017,07,19,14,52,22.90
2017,07,19,14,53,22.90
2017,07,19,14,54,23.00
2017,07,19,14,55,23.00
2017,07,19,14,56,23.10
2017,07,19,14,57,23.10
2017,07,19,14,58,23.20
2017,07,19,14,59,23.20
2017,07,19,15,00,23.20
2017,07,19,15,01,23.20
2017,07,19,15,02,23.20
2017,07,19,15,03,23.20
2017,07,19,15,04,23.20
2017,07,19,15,05,23.20
2017,07,19,15,06,23.20
2017,07,19,15,07,23.30
2017,07,19,15,08,23.30
2017,07,19,15,09,23.30
2017,07,19,15,10,23.30
2017,07,19,15,11,23.30
2017,07,19,15,12,23.30
2017,07,19,15,13,23.30
2017,07,19,15,14,23.30
2017,07,19,15,15,23.30
2017,07,19,15,16,23.30
2017,07,19,15,17,23.30
2017,07,19,15,18,23.20
2017,07,19,15,19,23.20
2017,07,19,15,20,23.20
2017,07,19,15,21,23.10
2017,07,19,15,22,23.10
2017,07,19,15,23,23.10
2017,07,19,15,24,23.00
2017,07,19,15,25,23.00
2017,07,19,15,26,22.90
2017,07,19,15,27,22.90
2017,07,19,15,28,22.80
2017,07,19,15,29,22.90
2017,07,19,15,30,22.90
2017,07,19,15,31,22.80
2017,07,19,15,32,22.80
2017,07,19,15,33,22.70
2017,07,19,15,34,22.60
2017,07,19,15,35,22.50
2017,07,19,15,36,22.40
2017,07,19,15,37,22.40
2017,07,19,15,38,22.40
2017,07,19,15,39,22.40
2017,07,19,15,40,22.40
2017,07,19,15,41,22.30
2017,07,19,15,42,22.30
2017,07,19,15,43,22.30
2017,07,19,15,44,22.30
2017,07,19,15,45,22.30
2017,07,19,15,46,22.40
2017,07,19,15,47,22.40
2017,07,19,15,48,22.50
2017,07,19,15,49,22.50
2017,07,19,15,50,22.40
2017,07,19,15,51,22.40
2017,07,19,15,52,22.30
2017,07,19,15,53,22.30
2017,07,19,15,54,22.30
2017,07,19,15,55,22.30
2017,07,19,15,56,22.30
2017,07,19,15,57,22.30
2017,07,19,15,58,22.40
2017,07,19,15,59,22.40
2017,07,19,16,00,22.40
2017,07,19,16,01,22.30
2017,07,19,16,02,22.30
2017,07,19,16,03,22.20
2017,07,19,16,04,22.10
2017,07,19,16,05,22.10
2017,07,19,16,06,22.00
2017,07,19,16,07,22.00
2017,07,19,16,08,22.10
2017,07,19,16,09,22.10
2017,07,19,16,10,22.10
2017,07,19,16,11,22.10
2017,07,19,16,12,22.10
2017,07,19,16,13,22.10
2017,07,19,16,14,22.10
2017,07,19,16,15,22.20
2017,07,19,16,16,22.20
2017,07,19,16,17,22.30
2017,07,19,16,18,22.20
2017,07,19,16,19,22.20
2017,07,19,16,20,22.10
2017,07,19,16,21,22.10
2017,07,19,16,22,22.00
2017,07,19,16,23,22.00
2017,07,19,16,24,21.90
2017,07,19,16,25,21.90
2017,07,19,16,26,21.90
2017,07,19,16,27,21.90
2017,07,19,16,28,21.90
2017,07,19,16,29,21.90
2017,07,19,16,30,21.90
2017,07,19,16,31,21.90
2017,07,19,16,32,21.90
2017,07,19,16,33,21.90
2017,07,19,16,34,21.90
2017,07,19,16,35,21.90
2017,07,19,16,36,21.90
2017,07,19,16,37,21.90
2017,07,19,16,38,21.90
2017,07,19,16,39,21.90
2017,07,19,16,40,22.00
2017,07,19,16,41,22.00
2017,07,19,16,42,22.10
2017,07,19,16,43,22.10
2017,07,19,16,44,22.10
2017,07,19,16,45,22.10
2017,07,19,16,46,22.00
2017,07,19,16,47,22.00
2017,07,19,16,48,22.00
2017,07,19,16,49,22.00
2017,07,19,16,50,22.10
2017,07,19,16,51,22.10
2017,07,19,16,52,22.10
2017,07,19,16,53,22.10
2017,07,19,16,54,22.10
2017,07,19,16,55,22.10
2017,07,19,16,56,22.20
2017,07,19,16,57,22.20
2017,07,19,16,58,22.20
2017,07,19,16,59,22.20
2017,07,19,17,00,22.20
2017,07,19,17,01,22.20
2017,07,19,17,02,22.10
2017,07,19,17,03,22.10
2017,07,19,17,04,22.10
2017,07,19,17,05,22.10
2017,07,19,17,06,22.10
2017,07,19,17,07,22.10
2017,07,19,17,08,22.10
2017,07,19,17,09,22.10
2017,07,19,17,10,22.10
2017,07,19,17,11,22.10
2017,07,19,17,12,22.10
2017,07,19,17,13,22.10
2017,07,19,17,14,22.10
2017,07,19,17,15,22.10
2017,07,19,17,16,22.10
2017,07,19,17,17,22.10
2017,07,19,17,18,22.10
2017,07,19,17,19,22.10